Regional Weather Roundup
Issued by NWS

Home | Current Version | Previous Version | Text Only | Print | Product List | Glossary Off
Versions: 1 2 3 4 5 6 7 8 9 10 11 12 13 14 15 16 17 18 19 20 21 22 23 24 25 26 27 28 29 30 31 32 33 34 35 36 37 38 39 40 41 42 43 44 45 46 47 48 49 50

000
ASUS43 KMPX 232201
RWRMN
WEATHER ROUNDUP FOR MINNESOTA
NATIONAL WEATHER SERVICE TWIN CITIES/CHANHASSEN MN
500 PM CDT WED JUL 23 2014


NOTE: "FAIR" INDICATES FEW OR NO CLOUDS BELOW 12,000 FEET WITH NO
SIGNIFICANT WEATHER AND/OR OBSTRUCTIONS TO VISIBILITY. N/A MEANS
CURRENT SKY AND/OR WEATHER CONDITIONS ARE NOT AVAILABLE.

MNZ060>063-068>070-232300-
   Twin Cities Metro

CITY           SKY/WX    TMP DP  RH WIND       PRES   REMARKS
TWIN CITIES    MOSUNNY   82  50  32 NW8       30.19F
ST PAUL        MOSUNNY   80  52  37 VRB5      30.19F
CRYSTAL        SUNNY     82  49  31 W12       30.18F
BLAINE         MOSUNNY   81  50  34 NW8       30.20F
LAKEVILLE      MOSUNNY   79  55  44 W8        30.19F
EDEN PRAIRIE   SUNNY     81  53  37 NW7       30.19F
SOUTH ST PAUL  PTSUNNY   81  51  35 N9        30.18F
LAKE ELMO      FAIR      77  55  47 N5        30.20F
$$
MNZ001>005-007-008-013>017-022>024-027-028-232300-
   Northwest Minnesota

CITY           SKY/WX    TMP DP  RH WIND       PRES   REMARKS
BEMIDJI        MOSUNNY   74  54  48 N8G17     30.24S
HALLOCK        MOSUNNY   73  48  40 N5        30.24F
ROSEAU         SUNNY     73  57  56 CALM      30.24F
WARROAD        MOSUNNY   70  54  56 E8        30.26F
THIEF RVR FALL PTSUNNY   73  55  53 NW7       30.25S
CROOKSTON      SUNNY     73  59  60 NW8       30.25F
FOSSTON        SUNNY     75  55  50 W8        30.25S
DETROIT LAKES  SUNNY     73  59  60 N8        30.27S
MOORHEAD       MOSUNNY   75  59  57 N6        30.24F
PARK RAPIDS    MOSUNNY   76  51  41 NW10      30.24F
$$
MNZ006-009>011-018-025>026-232300-
   North Central Minnesota

CITY           SKY/WX    TMP DP  RH WIND       PRES   REMARKS
BAUDETTE       SUNNY     73  48  41 NW7       30.25F
FLAG ISLAND    SUNNY     70  46  43 NE7       30.25S
INTL FALLS     PTSUNNY   71  50  47 NE6       30.24F
WASKISH        SUNNY     75  55  50 CALM      30.22F
BIG FORK       MOSUNNY   72  52  49 NE5       30.24F
LONGVILLE      SUNNY     75  54  46 W3        30.23F
GRAND RAPIDS   MOSUNNY   75  52  43 N8        30.23F
CRANE LAKE     MOSUNNY   70  46  43 N5        30.25F
ORR            MOSUNNY   72  46  40 NW7       30.22F
COOK           MOSUNNY   72  50  46 N7        30.24S
$$
MNZ012-019>021-037-232300-
   Northeast Minnesota

CITY           SKY/WX    TMP DP  RH WIND       PRES   REMARKS
DULUTH         MOSUNNY   75  52  44 NE7       30.21F
ELY            MOSUNNY   70  46  43 N5        30.23F
HIBBING        SUNNY     73  50  44 N7        30.23F
EVELETH        PTSUNNY   72  50  46 N6        30.24S
DULUTH HARBOR  SUNNY     64  57  77 NE3       30.21F
TWO HARBORS    CLOUDY    70  54  56 SE5       30.20F
SILVER BAY     SUNNY     70  55  60 SE7       30.20F
GRAND MARAIS     N/A     55  51  86 CALM      30.22F
G MARAIS ARPRT MOSUNNY   66  46  48 W5        30.24S
$$
MNZ029>031-032-039>041-046>048-054>057-064-232300-
   West Central Minnesota

CITY           SKY/WX    TMP DP  RH WIND       PRES   REMARKS
FERGUS FALLS   PTSUNNY   75  54  46 N6        30.23F
WHEATON        SUNNY     77  55  47 CALM      30.25F
MORRIS         MOSUNNY   79  57  47 NE5       30.23F
ALEXANDRIA     SUNNY     77  54  44 N7        30.26F
ELBOW LAKE     PTSUNNY   76  58  53 N7        30.24F
WADENA         MOSUNNY   73  57  56 N7        30.24S
GLENWOOD       MOSUNNY   75  57  53 NE6       30.25F
APPLETON       MOSUNNY   82  48  30 N8        30.22F
BENSON         SUNNY     79  55  44 NE5       30.23F
ORTONVILLE     PTSUNNY   81  54  39 N3        30.23F
MADISON        SUNNY     82  55  39 N8        30.23F
WILLMAR        FAIR      81  46  30 N10       30.24F
$$
MNZ033>034-036-042>043-049>051-058-059-232300-
   Central Minnesota

CITY           SKY/WX    TMP DP  RH WIND       PRES   REMARKS
ST CLOUD       SUNNY     81  50  33 N6        30.22F
SAUK CENTRE    FAIR      77  53  44 N5        30.24S
PAYNESVILLE    SUNNY     77  49  38 NW8       30.24S
AITKIN         MOSUNNY   77  57  50 CALM      30.21F
PINE RIVER     MOSUNNY   75  54  46 NW7       30.25F
BRAINERD       SUNNY     76  49  38 N9        30.23F
STAPLES        MOSUNNY   75  52  43 NW7       30.23F
LONG PRAIRIE   FAIR      75  54  46 NW5       30.24F
LITTLE FALLS   MOSUNNY   77  50  38 CALM      30.23S
LITCHFIELD     SUNNY     79  50  36 N10       30.23S
BUFFALO        SUNNY     79  46  31 NW5       30.22F
MAPLE LAKE     SUNNY     79  52  38 NW7       30.22F
$$
MNZ037-044-045-052-053-232300-
   East Central Minnesota

CITY           SKY/WX    TMP DP  RH WIND       PRES   REMARKS
PRINCETON      MOSUNNY   79  54  41 NW5       30.21F
MORA           MOSUNNY   75  52  43 NW3       30.22F
CAMBRIDGE      MOSUNNY   81  59  47 W7        30.19F
RUSH CITY      MOSUNNY   77  52  41 N3        30.21S
MOOSE LAKE     MOSUNNY   77  52  41 CALM      30.19F
HINCKLEY       FAIR      73  59  60 NW3       30.20F
CLOQUET        MOSUNNY   73  46  38 N5        30.21F
MCGREGOR       MOSUNNY   75  54  46 CALM      30.22F
$$
MNZ071>073-080-081-089-090-097-098-232300-
   Southwest Minnesota

CITY           SKY/WX    TMP DP  RH WIND       PRES   REMARKS
MONTEVIDEO     SUNNY     84  52  32 NE5       30.23F
GRANITE FALLS  MOSUNNY   80  53  39 NE3       30.23F
CANBY          SUNNY     80  55  41 NE3       30.23F
MARSHALL       SUNNY     79  54  41 N6        30.22F
REDWOOD FALLS  MOSUNNY   80  53  39 NE6       30.21F
OLIVIA         MOSUNNY   79  52  38 N7        30.21F
PIPESTONE      SUNNY     79  52  38 E6        30.24F
WINDOM         SUNNY     79  52  38 CALM      30.23F
WORTHINGTON    SUNNY     77  54  44 N7        30.25F
JACKSON        SUNNY     79  52  38 N6        30.23F
TRACY          MOSUNNY   80  55  43 NW5       30.23F
SLAYTON        SUNNY     78  51  38 CALM      30.25F
$$
MNZ065>067-074>077-082>085-091>093-232300-
   South Central Minnesota

CITY           SKY/WX    TMP DP  RH WIND       PRES   REMARKS
MANKATO        MOSUNNY   79  52  38 N3        30.20F
NEW ULM        MOSUNNY   81  54  39 N3        30.21F
ST JAMES       MOSUNNY   82  48  30 SW3       30.22F
FAIRMONT       MOSUNNY   81  55  41 N6        30.21F
GLENCOE        SUNNY     81  48  31 NW9       30.20F
FARIBAULT      PTSUNNY   84  45  24 NW6       30.20F
OWATONNA       SUNNY     79  52  38 N7        30.21F
WASECA         MOSUNNY   77  50  38 NW5       30.22F
ALBERT LEA     PTSUNNY   79  54  41 N5        30.21F
$$
MNZ078>079-086>088-094>096-232300-
   Southeast Minnesota

CITY           SKY/WX    TMP DP  RH WIND       PRES   REMARKS
ROCHESTER      MOSUNNY   78  54  43 VRB7      30.22F
RED WING       PTSUNNY   82  48  30 N6        30.18S
STANTON        MOSUNNY   81  51  35 NW8       30.18F
DODGE CENTER   MOSUNNY   77  54  44 NW5       30.21F
WINONA         SUNNY     79  54  41 NW10      30.18S
AUSTIN         MOSUNNY   79  50  36 NE9       30.20F
PRESTON        MOSUNNY   76  60  56 N9        30.21S
$$
ABBREVIATIONS USED IN REMARKS
   TC - TEMPERATURES IN CELSIUS
  WCI - WIND CHILL INDEX
   HX - HEAT INDEX
  VSB - VISIBILITY
$$


USA.gov is the U.S. government's official web portal to all federal, state and local government web resources and services.